STARLINK-32789, 62529

Orbit data source: Space-Track

STARLINK-32789, 62529 is a payload satellite owned by SpaceX/Seattle (US) in LEO that was launched on Wed, 08 Jan 2025 UTC via an FALCON 9 launch vehicle from the Air Force Eastern Test Range (AFETR). Payload-class satellites include a variety of spacecraft equipped with specific instruments for various scientific and technological missions. These include communications satellites like Starlink; space stations such as the ISS; scientific satellites like the Hubble; Earth observation satellites from companies like Planet Labs, Umbra, and HawkEye 360; GPS; miniature CubeSats for education and research; and military/defense satellites.

Loading next visibility...
Identifier
62529, 2025-004U
Orbit
LEO
Country
Flag of USUS
Related business
Manufacturer
SpaceX/Seattle
Mission
Operational Commercial Communications
Bus & Motor
STARLINK V2M, Unknown motor
Mass
730 kg wet, ~700 kg dry
Launch date (UTC)
2025-01-08 (9 months ago)
Launch vehicle
FALCON 9
Launch site
Air Force Eastern Test Range (AFETR)
Object type
Payload
Rocket body
Debris
Shape & HBR
Box + 2 Pan, 17.7 m
Radar Cross Section
33.884 m², Large (>1 m²)

Expand to show TLE details & history
Last TLE update: 14 hours ago

TLE from 14 hours ago
0 STARLINK-32789
1 62529U 25004U   25292.30006613  .00045609  00000-0  16553-2 0  9990
2 62529  43.0005 298.4729 0001421 257.0723 102.9970 15.27607647 44835
Epoch: 2025-10-19T07:12Z
TLE epoch observation values (Epoch: 2025-10-19T07:12:05.713Z)
Latitude
-0.00002°
Longitude
162.43036°
Altitude
482.961 km
Speed
7.626 km/s
True Right ascension
19h 53m 53s
True Declination
0° 00' 00"
Sunlit
Object was in daylight at epoch
Visualization orbit readout
Latitude
Unknown
Longitude
Unknown
Altitude
Unknown
Speed
Unknown
Apparent Right ascension
Unknown
Apparent Declination
Unknown
Sunlit
N/A
Visualization observer readout
Local Sidereal Time
15:36:17
Azimuth
Unknown
Elevation
Unknown
Doppler factor
Unknown
Orbital elements
Apogee altitude
485.887 km
Perigee altitude
483.936 km
Semi-major axis
6,863.048 km
Eccentricity
0.00014
Inclination
43.0005°
RAAN
298.4729°
Arg. of periapsis
257.0723°
True anomaly
103.01287°
Mean anomaly
102.997°
Eccentric anomaly
103.00493°
Mean motion
3.8174 °/min
Orbital period
94.31 mins
BSTAR
0.0016553
Loading maneuver chart data...
Computing Atmospheric mass density...
Loading historical data...
Loading historical data...
Loading historical data...
Loading historical data...
Loading historical data...
Loading historical data...
Loading historical data...

Documentation

Showing up to 5 results
|